| time (UTC) | temp C | wind direction | speed KPH | gust KPH | rain 1hr cm | rain 24hr cm | rain mn cm | humidity % | barometer mb |
| 20260502130506 | 8 | 123 | 1.6 | 6.4 | 0.00 | 0.71 | 0.71 | 93 | 1012.1 |
| 20260502123511 | 7 | 178 | 1.6 | 4.8 | 0.00 | 0.71 | 0.71 | 93 | 1012.3 |
| 20260502123026 | 7 | 212 | 1.6 | 3.2 | 0.00 | 0.71 | 0.71 | 94 | 1012.3 |
| 20260502122511 | 7 | 265 | 0.0 | 4.8 | 0.00 | 0.71 | 0.71 | 94 | 1012.1 |
| 20260502122006 | 7 | 238 | 1.6 | 4.8 | 0.00 | 0.71 | 0.71 | 94 | 1012.2 |
| 20260502121526 | 7 | 205 | 0.0 | 3.2 | 0.03 | 0.71 | 0.71 | 94 | 1012.2 |
| 20260502121005 | 7 | 205 | 1.6 | 4.8 | 0.03 | 0.71 | 0.71 | 94 | 1012.2 |
| 20260502120509 | 7 | 93 | 0.0 | 4.8 | 0.03 | 0.71 | 0.71 | 94 | 1012.1 |
| 20260502115508 | 7 | 51 | 1.6 | 4.8 | 0.05 | 0.71 | 0.71 | 94 | 1012.1 |
| 20260502115007 | 7 | 51 | 1.6 | 4.8 | 0.05 | 0.71 | 0.71 | 94 | 1012.1 |
| 20260502114530 | 7 | 41 | 1.6 | 4.8 | 0.05 | 0.71 | 0.71 | 94 | 1011.9 |
| 20260502114010 | 7 | 38 | 1.6 | 4.8 | 0.05 | 0.71 | 0.71 | 94 | 1011.9 |
| 20260502113507 | 7 | 34 | 0.0 | 4.8 | 0.05 | 0.71 | 0.71 | 94 | 1012.1 |
| 20260502113027 | 7 | 309 | 0.0 | 4.8 | 0.05 | 0.71 | 0.71 | 94 | 1012.1 |
| 20260502112512 | 7 | 44 | 1.6 | 4.8 | 0.05 | 0.71 | 0.71 | 94 | 1011.9 |
| 20260502112009 | 7 | 265 | 0.0 | 3.2 | 0.05 | 0.71 | 0.71 | 94 | 1012.0 |
| 20260502111526 | 7 | 93 | 0.0 | 3.2 | 0.03 | 0.69 | 0.69 | 94 | 1012.0 |
| 20260502111003 | 7 | 9 | 0.0 | 3.2 | 0.03 | 0.69 | 0.69 | 94 | 1012.1 |
| 20260502110507 | 7 | 265 | 0.0 | 3.2 | 0.03 | 0.69 | 0.69 | 94 | 1012.0 |
| 20260502110016 | 7 | 193 | 1.6 | 3.2 | 0.00 | 0.66 | 0.66 | 94 | 1012.1 |
| 20260502105508 | 7 | 178 | 1.6 | 3.2 | 0.00 | 0.66 | 0.66 | 94 | 1011.9 |
| 20260502105007 | 6 | 205 | 0.0 | 3.2 | 0.00 | 0.66 | 0.66 | 94 | 1012.0 |
| 20260502104522 | 6 | 119 | 0.0 | 3.2 | 0.00 | 0.66 | 0.66 | 94 | 1012.0 |
| 20260502104009 | 6 | 153 | 0.0 | 3.2 | 0.00 | 0.66 | 0.66 | 94 | 1011.9 |
| 20260502103510 | 6 | 265 | 0.0 | 1.6 | 0.00 | 0.66 | 0.66 | 94 | 1011.9 |
| 20260502103022 | 6 | 265 | 0.0 | 4.8 | 0.00 | 0.66 | 0.66 | 94 | 1011.8 |
| 20260502102512 | 6 | 22 | 0.0 | 6.4 | 0.00 | 0.66 | 0.66 | 94 | 1011.7 |
| 20260502102009 | 6 | 22 | 3.2 | 6.4 | 0.00 | 0.66 | 0.66 | 94 | 1011.6 |
| 20260502101525 | 6 | 59 | 3.2 | 6.4 | 0.00 | 0.66 | 0.66 | 94 | 1011.5 |
| 20260502101008 | 6 | 38 | 1.6 | 6.4 | 0.03 | 0.66 | 0.66 | 94 | 1011.5 |
| 20260502100509 | 6 | 93 | 1.6 | 6.4 | 0.03 | 0.66 | 0.66 | 94 | 1011.6 |
| 20260502091526 | 6 | 41 | 0.0 | 4.8 | 0.20 | 0.66 | 0.66 | 93 | 1011.9 |
| 20260502091010 | 6 | 330 | 1.6 | 4.8 | 0.20 | 0.64 | 0.64 | 93 | 1011.9 |
| 20260502090509 | 6 | 9 | 1.6 | 4.8 | 0.23 | 0.64 | 0.64 | 93 | 1011.9 |
| 20260502071521 | 6 | 55 | 3.2 | 9.7 | 0.20 | 0.30 | 0.30 | 92 | 1012.0 |
| 20260502071006 | 6 | 18 | 4.8 | 12.9 | 0.20 | 0.28 | 0.28 | 92 | 1012.1 |
| 20260502070513 | 6 | 22 | 3.2 | 12.9 | 0.23 | 0.28 | 0.28 | 92 | 1012.1 |
| 20260502070035 | 6 | 342 | 3.2 | 8.0 | 0.20 | 0.25 | 0.25 | 92 | 1012.1 |
| 20260502065509 | 6 | 330 | 1.6 | 9.7 | 0.20 | 0.25 | 0.25 | 92 | 1012.1 |
| 20260502065012 | 6 | 316 | 3.2 | 9.7 | 0.20 | 0.25 | 0.25 | 92 | 1012.1 |
| 20260502064538 | 6 | 44 | 4.8 | 8.0 | 0.18 | 0.23 | 0.23 | 92 | 1012.1 |
| 20260502064009 | 6 | 51 | 3.2 | 6.4 | 0.15 | 0.20 | 0.20 | 92 | 1012.2 |
| 20260502063512 | 6 | 34 | 3.2 | 6.4 | 0.15 | 0.20 | 0.20 | 91 | 1012.2 |
| 20260502063028 | 6 | 9 | 1.6 | 4.8 | 0.13 | 0.18 | 0.18 | 91 | 1012.3 |
| 20260502062507 | 6 | 9 | 0.0 | 4.8 | 0.15 | 0.18 | 0.18 | 91 | 1012.3 |
| 20260502062010 | 6 | 9 | 1.6 | 4.8 | 0.13 | 0.15 | 0.15 | 91 | 1012.3 |
| 20260502061517 | 7 | 9 | 1.6 | 6.4 | 0.08 | 0.10 | 0.10 | 91 | 1012.3 |
| 20260502061007 | 6 | 338 | 1.6 | 6.4 | 0.05 | 0.08 | 0.08 | 91 | 1012.4 |
| 20260502060507 | 6 | 291 | 1.6 | 8.0 | 0.05 | 0.05 | 0.05 | 91 | 1012.5 |
| 20260502060018 | 6 | 19 | 4.8 | 9.7 | 0.05 | 0.05 | 0.05 | 90 | 1012.4 |
| 20260502055507 | 6 | 28 | 4.8 | 9.7 | 0.05 | 0.05 | 0.05 | 90 | 1012.3 |
| 20260502055006 | 6 | 46 | 4.8 | 8.0 | 0.05 | 0.05 | 0.05 | 90 | 1012.5 |
| 20260502054520 | 6 | 19 | 3.2 | 6.4 | 0.05 | 0.05 | 0.05 | 89 | 1012.6 |
| 20260502054007 | 6 | 76 | 3.2 | 6.4 | 0.05 | 0.05 | 0.05 | 89 | 1012.6 |
| 20260502053503 | 7 | 30 | 1.6 | 4.8 | 0.05 | 0.05 | 0.05 | 88 | 1012.8 |
| 20260502053010 | 7 | 26 | 0.0 | 6.4 | 0.05 | 0.05 | 0.05 | 88 | 1012.8 |
| 20260502052506 | 7 | 325 | 0.0 | 6.4 | 0.03 | 0.03 | 0.03 | 87 | 1012.7 |
| 20260502052011 | 7 | 247 | 1.6 | 4.8 | 0.03 | 0.03 | 0.03 | 86 | 1012.6 |
| 20260502051518 | 7 | 265 | 3.2 | 6.4 | 0.03 | 0.03 | 0.03 | 85 | 1012.5 |
| 20260502051006 | 7 | 342 | 3.2 | 6.4 | 0.03 | 0.03 | 0.03 | 85 | 1012.4 |
| 20260502050506 | 7 | 314 | 0.0 | 4.8 | 0.00 | 0.00 | 0.00 | 83 | 1012.4 |
| 20260502050020 | 7 | 265 | 1.6 | 4.8 | 0.00 | 0.00 | 0.00 | 81 | 1012.4 |
| 20260502045508 | 7 | 227 | 1.6 | 4.8 | 0.00 | 0.00 | 0.00 | 81 | 1012.3 |
| 20260502045006 | 7 | 209 | 1.6 | 4.8 | 0.00 | 0.00 | 0.00 | 80 | 1012.3 |
| 20260502044520 | 7 | 178 | 3.2 | 4.8 | 0.00 | 0.00 | 0.00 | 80 | 1012.3 |
| 20260502044007 | 7 | 165 | 1.6 | 4.8 | 0.00 | 0.00 | 0.00 | 79 | 1012.2 |
| 20260502043508 | 7 | 146 | 0.0 | 3.2 | 0.00 | 0.00 | 0.00 | 79 | 1012.1 |
| 20260502043022 | 7 | 232 | 0.0 | 6.4 | 0.00 | 0.00 | 0.00 | 77 | 1012.0 |
| 20260502042507 | 7 | 291 | 1.6 | 6.4 | 0.00 | 0.00 | 0.00 | 78 | 1012.0 |
| 20260502042006 | 7 | 212 | 1.6 | 6.4 | 0.00 | 0.00 | 0.00 | 78 | 1011.9 |
| 20260502041522 | 7 | 168 | 0.0 | 4.8 | 0.00 | 0.00 | 0.00 | 75 | 1011.8 |
| 20260502041007 | 7 | 321 | 1.6 | 4.8 | 0.00 | 0.00 | 0.00 | 75 | 1011.7 |
| 20260502040507 | 7 | 319 | 1.6 | 4.8 | 0.00 | 0.00 | 0.00 | 76 | 1011.7 |
| 20260502040015 | 7 | 325 | 1.6 | 4.8 | 0.00 | 0.00 | 0.00 | 77 | 1011.7 |
| 20260502035510 | 7 | 26 | 3.2 | 4.8 | 0.00 | 0.00 | 0.00 | 79 | 1011.7 |
| 20260502035006 | 7 | 51 | 1.6 | 4.8 | 0.00 | 0.00 | 0.00 | 78 | 1011.7 |
| 20260502034534 | 7 | 330 | 1.6 | 4.8 | 0.00 | 0.00 | 0.00 | 78 | 1011.7 |
| 20260502034012 | 7 | 51 | 0.0 | 3.2 | 0.00 | 0.00 | 0.00 | 77 | 1011.8 |
| 20260502033510 | 7 | 51 | 0.0 | 3.2 | 0.00 | 0.00 | 0.00 | 79 | 1011.8 |
| 20260502033023 | 7 | 205 | 1.6 | 3.2 | 0.00 | 0.00 | 0.00 | 79 | 1011.7 |
| 20260502032506 | 7 | 247 | 1.6 | 4.8 | 0.00 | 0.00 | 0.00 | 80 | 1011.7 |
| 20260502032004 | 7 | 265 | 1.6 | 4.8 | 0.00 | 0.00 | 0.00 | 76 | 1011.7 |
| 20260502031508 | 7 | 295 | 1.6 | 6.4 | 0.00 | 0.00 | 0.00 | 76 | 1011.7 |
| 20260502031003 | 7 | 232 | 3.2 | 6.4 | 0.00 | 0.00 | 0.00 | 78 | 1011.6 |
| 20260502030503 | 7 | 153 | 0.0 | 3.2 | 0.00 | 0.00 | 0.00 | 73 | 1011.6 |
| 20260502030003 | 7 | 146 | 0.0 | 8.0 | 0.00 | 0.00 | 0.00 | 74 | 1011.7 |
| 20260502025503 | 7 | 51 | 1.6 | 8.0 | 0.00 | 0.00 | 0.00 | 72 | 1011.7 |
| 20260502025002 | 7 | 51 | 4.8 | 6.4 | 0.00 | 0.00 | 0.00 | 71 | 1011.7 |
| 20260502024510 | 8 | 41 | 1.6 | 6.4 | 0.00 | 0.00 | 0.00 | 70 | 1011.6 |
| 20260502024003 | 8 | 9 | 0.0 | 6.4 | 0.00 | 0.00 | 0.00 | 70 | 1011.6 |
| 20260502023503 | 7 | 309 | 1.6 | 6.4 | 0.00 | 0.00 | 0.00 | 70 | 1011.6 |
| 20260502023005 | 7 | 210 | 3.2 | 8.0 | 0.00 | 0.00 | 0.00 | 71 | 1011.5 |
| 20260502022503 | 7 | 247 | 4.8 | 8.0 | 0.00 | 0.00 | 0.00 | 71 | 1011.6 |
| 20260502022003 | 7 | 234 | 4.8 | 6.4 | 0.00 | 0.00 | 0.00 | 72 | 1011.6 |
| 20260502021509 | 7 | 212 | 1.6 | 6.4 | 0.00 | 0.00 | 0.00 | 74 | 1011.5 |
| 20260502021004 | 7 | 200 | 3.2 | 8.0 | 0.00 | 0.00 | 0.00 | 75 | 1011.5 |
| 20260502020511 | 7 | 205 | 1.6 | 8.0 | 0.00 | 0.00 | 0.00 | 71 | 1011.5 |
| 20260502020010 | 7 | 55 | 6.4 | 8.0 | 0.00 | 0.00 | 0.00 | 70 | 1011.5 |
| 20260502015502 | 7 | 56 | 4.8 | 8.0 | 0.00 | 0.00 | 0.00 | 71 | 1011.4 |
| 20260502015003 | 7 | 24 | 1.6 | 6.4 | 0.00 | 0.00 | 0.00 | 72 | 1011.5 |
| 20260502014519 | 7 | 51 | 0.0 | 9.7 | 0.00 | 0.00 | 0.00 | 74 | 1011.5 |
| 20260502014002 | 7 | 205 | 4.8 | 9.7 | 0.00 | 0.00 | 0.00 | 73 | 1011.5 |
| 20260502013502 | 7 | 205 | 1.6 | 6.4 | 0.00 | 0.00 | 0.00 | 71 | 1011.5 |
| 20260502013024 | 7 | 9 | 0.0 | 6.4 | 0.00 | 0.00 | 0.00 | 71 | 1011.6 |
| 20260502012504 | 7 | 238 | 3.2 | 6.4 | 0.00 | 0.00 | 0.00 | 71 | 1011.5 |
| 20260502012004 | 7 | 242 | 3.2 | 6.4 | 0.00 | 0.00 | 0.00 | 72 | 1011.5 |
| 20260502011505 | 8 | 232 | 3.2 | 6.4 | 0.00 | 0.00 | 0.00 | 72 | 1011.5 |
| 20260502011003 | 8 | 238 | 3.2 | 6.4 | 0.00 | 0.00 | 0.00 | 70 | 1011.4 |
| 20260502010505 | 8 | 250 | 1.6 | 6.4 | 0.00 | 0.00 | 0.00 | 71 | 1011.4 |
| 20260502010010 | 8 | 279 | 1.6 | 8.0 | 0.00 | 0.00 | 0.00 | 70 | 1011.4 |
| 20260502005505 | 8 | 265 | 3.2 | 8.0 | 0.00 | 0.00 | 0.00 | 68 | 1011.3 |
| 20260502005008 | 9 | 255 | 3.2 | 6.4 | 0.00 | 0.00 | 0.00 | 68 | 1011.3 |
| 20260502004516 | 9 | 247 | 3.2 | 6.4 | 0.00 | 0.00 | 0.00 | 65 | 1011.2 |
| 20260502004006 | 10 | 238 | 4.8 | 9.7 | 0.00 | 0.00 | 0.00 | 66 | 1011.2 |
| 20260502003502 | 10 | 249 | 3.2 | 9.7 | 0.00 | 0.00 | 0.00 | 65 | 1011.1 |
| 20260502003005 | 10 | 238 | 4.8 | 8.0 | 0.00 | 0.00 | 0.00 | 64 | 1011.1 |
| 20260502002503 | 10 | 250 | 4.8 | 8.0 | 0.00 | 0.00 | 0.00 | 66 | 1011.0 |
| 20260502002003 | 10 | 242 | 4.8 | 8.0 | 0.00 | 0.00 | 0.00 | 63 | 1011.0 |
| 20260502001512 | 10 | 265 | 3.2 | 8.0 | 0.00 | 0.00 | 0.00 | 63 | 1010.9 |
| 20260502001004 | 11 | 236 | 4.8 | 6.4 | 0.00 | 0.00 | 0.00 | 62 | 1010.7 |
| 20260502000504 | 11 | 225 | 3.2 | 6.4 | 0.00 | 0.00 | 0.00 | 60 | 1010.6 |
| 20260502000029 | 11 | 257 | 3.2 | 4.8 | 0.00 | 0.00 | 0.00 | 52 | 1010.5 |
| 20260501235505 | 11 | 247 | 3.2 | 9.7 | 0.00 | 0.00 | 0.00 | 51 | 1010.4 |
| 20260501235004 | 11 | 250 | 3.2 | 9.7 | 0.00 | 0.00 | 0.00 | 52 | 1010.4 |
| 20260501234512 | 12 | 232 | 1.6 | 6.4 | 0.00 | 0.00 | 0.00 | 45 | 1010.3 |
| 20260501234004 | 12 | 247 | 1.6 | 8.0 | 0.00 | 0.00 | 0.00 | 44 | 1010.2 |
| 20260501233506 | 13 | 275 | 3.2 | 16.1 | 0.00 | 0.00 | 0.00 | 43 | 1010.0 |
| 20260501233018 | 13 | 243 | 3.2 | 17.7 | 0.00 | 0.00 | 0.00 | 42 | 1010.0 |
| 20260501232506 | 13 | 241 | 6.4 | 22.5 | 0.00 | 0.00 | 0.00 | 41 | 1010.0 |
| 20260501232011 | 13 | 242 | 11.3 | 22.5 | 0.00 | 0.00 | 0.00 | 42 | 1010.0 |
| 20260501231515 | 13 | 249 | 4.8 | 16.1 | 0.00 | 0.00 | 0.00 | 45 | 1009.9 |
| 20260501231002 | 13 | 137 | 3.2 | 6.4 | 0.00 | 0.00 | 0.00 | 51 | 1009.9 |
| 20260501230505 | 13 | 309 | 1.6 | 6.4 | 0.00 | 0.00 | 0.00 | 42 | 1009.8 |
| 20260501230022 | 13 | 265 | 3.2 | 9.7 | 0.00 | 0.00 | 0.00 | 46 | 1009.8 |
| 20260501225503 | 13 | 295 | 3.2 | 9.7 | 0.00 | 0.00 | 0.00 | 42 | 1009.8 |
| 20260501225002 | 13 | 265 | 1.6 | 8.0 | 0.00 | 0.00 | 0.00 | 45 | 1009.7 |
| 20260501224508 | 13 | 342 | 3.2 | 8.0 | 0.00 | 0.00 | 0.00 | 42 | 1009.6 |
| 20260501224003 | 14 | 340 | 3.2 | 8.0 | 0.00 | 0.00 | 0.00 | 42 | 1009.6 |
| 20260501223508 | 15 | 28 | 3.2 | 8.0 | 0.00 | 0.00 | 0.00 | 40 | 1009.6 |
| 20260501223016 | 15 | 205 | 1.6 | 8.0 | 0.00 | 0.03 | 0.00 | 37 | 1009.6 |
| 20260501222507 | 15 | 221 | 0.0 | 8.0 | 0.00 | 0.03 | 0.00 | 35 | 1009.6 |
| 20260501222010 | 15 | 17 | 4.8 | 9.7 | 0.00 | 0.03 | 0.00 | 35 | 1009.6 |
| 20260501221523 | 15 | 76 | 1.6 | 9.7 | 0.00 | 0.03 | 0.00 | 35 | 1009.6 |
| 20260501221008 | 15 | 329 | 3.2 | 6.4 | 0.00 | 0.05 | 0.00 | 41 | 1009.6 |
| 20260501220508 | 15 | 265 | 0.0 | 11.3 | 0.00 | 0.05 | 0.00 | 37 | 1009.6 |
| 20260501220011 | 15 | 298 | 1.6 | 11.3 | 0.00 | 0.05 | 0.00 | 36 | 1009.7 |
| 20260501215502 | 15 | 316 | 3.2 | 8.0 | 0.00 | 0.05 | 0.00 | 40 | 1009.7 |
| 20260501215009 | 15 | 196 | 1.6 | 9.7 | 0.00 | 0.05 | 0.00 | 36 | 1009.6 |
| 20260501214509 | 15 | 236 | 3.2 | 9.7 | 0.00 | 0.05 | 0.00 | 37 | 1009.6 |
| 20260501214003 | 15 | 282 | 3.2 | 11.3 | 0.00 | 0.05 | 0.00 | 38 | 1009.6 |
| 20260501213514 | 15 | 309 | 4.8 | 19.3 | 0.00 | 0.05 | 0.00 | 35 | 1009.6 |
| 20260501213012 | 15 | 288 | 8.0 | 19.3 | 0.00 | 0.05 | 0.00 | 37 | 1009.6 |
| 20260501212509 | 15 | 185 | 6.4 | 19.3 | 0.00 | 0.05 | 0.00 | 40 | 1009.5 |
| 20260501212006 | 15 | 319 | 8.0 | 19.3 | 0.00 | 0.05 | 0.00 | 34 | 1009.6 |
| 20260501211516 | 15 | 72 | 4.8 | 24.1 | 0.00 | 0.05 | 0.00 | 35 | 1009.6 |
| 20260501211007 | 15 | 334 | 3.2 | 24.1 | 0.00 | 0.05 | 0.00 | 38 | 1009.6 |
| 20260501210506 | 15 | 18 | 9.7 | 22.5 | 0.00 | 0.05 | 0.00 | 36 | 1009.6 |
| 20260501210024 | 15 | 9 | 8.0 | 22.5 | 0.00 | 0.05 | 0.00 | 35 | 1009.6 |
| 20260501205513 | 16 | 323 | 6.4 | 22.5 | 0.00 | 0.05 | 0.00 | 41 | 1009.5 |
| 20260501205011 | 15 | 295 | 9.7 | 19.3 | 0.00 | 0.05 | 0.00 | 36 | 1009.5 |
| 20260501204526 | 15 | 70 | 9.7 | 16.1 | 0.00 | 0.05 | 0.00 | 34 | 1009.4 |
| 20260501204003 | 15 | 9 | 6.4 | 16.1 | 0.00 | 0.05 | 0.00 | 37 | 1009.4 |
| 20260501203507 | 15 | 42 | 4.8 | 22.5 | 0.00 | 0.05 | 0.00 | 37 | 1009.4 |
| 20260501203029 | 15 | 28 | 8.0 | 22.5 | 0.00 | 0.05 | 0.00 | 38 | 1009.4 |
| 20260501202503 | 15 | 347 | 9.7 | 22.5 | 0.00 | 0.05 | 0.00 | 38 | 1009.4 |
| 20260501202011 | 15 | 254 | 4.8 | 24.1 | 0.00 | 0.05 | 0.00 | 37 | 1009.4 |
| 20260501201526 | 15 | 282 | 4.8 | 30.6 | 0.00 | 0.05 | 0.00 | 34 | 1009.4 |
| 20260501201008 | 15 | 40 | 14.5 | 30.6 | 0.00 | 0.05 | 0.00 | 40 | 1009.4 |
| 20260501200509 | 15 | 25 | 17.7 | 30.6 | 0.00 | 0.05 | 0.00 | 36 | 1009.4 |
| 20260501200028 | 15 | 10 | 12.9 | 27.4 | 0.00 | 0.05 | 0.00 | 38 | 1009.4 |
| 20260501195507 | 15 | 26 | 4.8 | 17.7 | 0.00 | 0.05 | 0.00 | 36 | 1009.3 |
| 20260501195007 | 15 | 265 | 3.2 | 27.4 | 0.00 | 0.05 | 0.00 | 38 | 1009.5 |
| 20260501194529 | 15 | 350 | 14.5 | 33.8 | 0.00 | 0.05 | 0.00 | 35 | 1009.6 |
| 20260501194010 | 15 | 38 | 11.3 | 33.8 | 0.00 | 0.05 | 0.00 | 35 | 1009.6 |
| 20260501193509 | 15 | 350 | 12.9 | 20.9 | 0.00 | 0.05 | 0.00 | 38 | 1009.6 |
| 20260501193028 | 14 | 332 | 4.8 | 17.7 | 0.00 | 0.05 | 0.00 | 41 | 1009.6 |
| 20260501192502 | 15 | 212 | 1.6 | 20.9 | 0.00 | 0.05 | 0.00 | 36 | 1009.7 |
| 20260501192005 | 15 | 307 | 6.4 | 20.9 | 0.00 | 0.05 | 0.00 | 39 | 1009.8 |
| 20260501191512 | 15 | 232 | 11.3 | 25.7 | 0.00 | 0.05 | 0.00 | 34 | 1009.8 |
| 20260501191003 | 15 | 307 | 14.5 | 25.7 | 0.00 | 0.05 | 0.00 | 36 | 1009.8 |
| 20260501190503 | 15 | 295 | 3.2 | 27.4 | 0.00 | 0.05 | 0.00 | 33 | 1009.8 |
| 20260501190019 | 15 | 314 | 11.3 | 27.4 | 0.00 | 0.05 | 0.00 | 38 | 1010.1 |
| 20260501185509 | 14 | 268 | 8.0 | 35.4 | 0.00 | 0.05 | 0.00 | 37 | 1010.1 |
| 20260501185009 | 15 | 269 | 6.4 | 48.3 | 0.00 | 0.05 | 0.00 | 33 | 1010.2 |
| 20260501184528 | 15 | 40 | 24.1 | 48.3 | 0.00 | 0.05 | 0.00 | 38 | 1010.1 |
| 20260501184010 | 15 | 331 | 17.7 | 40.2 | 0.00 | 0.05 | 0.00 | 39 | 1010.2 |
| 20260501183508 | 15 | 59 | 16.1 | 33.8 | 0.00 | 0.05 | 0.00 | 37 | 1010.1 |
| 20260501183036 | 15 | 80 | 24.1 | 33.8 | 0.00 | 0.08 | 0.00 | 36 | 1010.2 |
| 20260501182503 | 15 | 24 | 9.7 | 29.0 | 0.00 | 0.08 | 0.00 | 41 | 1010.3 |
| 20260501182016 | 15 | 30 | 6.4 | 29.0 | 0.00 | 0.08 | 0.00 | 41 | 1010.4 |
| 20260501181514 | 15 | 28 | 14.5 | 30.6 | 0.00 | 0.08 | 0.00 | 39 | 1010.3 |
| 20260501181010 | 15 | 9 | 8.0 | 40.2 | 0.00 | 0.08 | 0.00 | 39 | 1010.3 |
| 20260501180503 | 15 | 339 | 16.1 | 40.2 | 0.00 | 0.08 | 0.00 | 43 | 1010.1 |
| 20260501180020 | 15 | 48 | 12.9 | 27.4 | 0.00 | 0.08 | 0.00 | 37 | 1010.1 |
| 20260501175504 | 15 | 329 | 4.8 | 25.7 | 0.00 | 0.08 | 0.00 | 47 | 1010.1 |
| 20260501175005 | 13 | 232 | 8.0 | 33.8 | 0.00 | 0.08 | 0.00 | 36 | 1010.2 |
| 20260501174517 | 14 | 9 | 14.5 | 33.8 | 0.00 | 0.08 | 0.00 | 38 | 1010.2 |
| 20260501174007 | 14 | 317 | 8.0 | 32.2 | 0.00 | 0.08 | 0.00 | 42 | 1010.2 |
| 20260501173506 | 13 | 53 | 14.5 | 27.4 | 0.00 | 0.08 | 0.00 | 41 | 1010.2 |
| 20260501173022 | 13 | 298 | 8.0 | 20.9 | 0.00 | 0.08 | 0.00 | 41 | 1010.1 |
| 20260501172509 | 13 | 281 | 6.4 | 29.0 | 0.00 | 0.08 | 0.00 | 42 | 1010.2 |
| 20260501172002 | 14 | 329 | 9.7 | 29.0 | 0.00 | 0.08 | 0.00 | 39 | 1010.2 |
| 20260501171526 | 15 | 21 | 8.0 | 27.4 | 0.00 | 0.08 | 0.00 | 50 | 1010.3 |
| 20260501171003 | 15 | 297 | 8.0 | 16.1 | 0.00 | 0.08 | 0.00 | 44 | 1010.2 |
| 20260501170517 | 14 | 329 | 3.2 | 25.7 | 0.00 | 0.08 | 0.00 | 48 | 1010.2 |
| 20260501170012 | 14 | 341 | 9.7 | 25.7 | 0.00 | 0.08 | 0.00 | 42 | 1010.3 |
| 20260501165510 | 15 | 305 | 9.7 | 30.6 | 0.00 | 0.08 | 0.00 | 43 | 1010.3 |
| 20260501165011 | 15 | 311 | 9.7 | 30.6 | 0.00 | 0.10 | 0.00 | 44 | 1010.3 |
| 20260501164516 | 14 | 28 | 4.8 | 32.2 | 0.00 | 0.10 | 0.00 | 44 | 1010.3 |
| 20260501164010 | 14 | 336 | 9.7 | 32.2 | 0.00 | 0.10 | 0.00 | 45 | 1010.3 |
| 20260501163507 | 14 | 64 | 14.5 | 30.6 | 0.00 | 0.10 | 0.00 | 46 | 1010.2 |
| 20260501163029 | 13 | 67 | 14.5 | 30.6 | 0.00 | 0.13 | 0.00 | 47 | 1010.3 |
| 20260501162510 | 14 | 20 | 19.3 | 30.6 | 0.00 | 0.13 | 0.00 | 43 | 1010.4 |
| 20260501162011 | 14 | 57 | 8.0 | 29.0 | 0.00 | 0.13 | 0.00 | 51 | 1010.3 |
| 20260501161525 | 14 | 323 | 14.5 | 29.0 | 0.00 | 0.13 | 0.00 | 51 | 1010.4 |
| 20260501161009 | 14 | 301 | 8.0 | 27.4 | 0.00 | 0.13 | 0.00 | 45 | 1010.4 |
| 20260501160503 | 14 | 297 | 16.1 | 27.4 | 0.00 | 0.13 | 0.00 | 49 | 1010.4 |
| 20260501160016 | 13 | 45 | 12.9 | 27.4 | 0.00 | 0.13 | 0.00 | 50 | 1010.4 |
| 20260501155507 | 13 | 57 | 16.1 | 32.2 | 0.00 | 0.13 | 0.00 | 47 | 1010.5 |
| 20260501155011 | 13 | 44 | 8.0 | 38.6 | 0.00 | 0.13 | 0.00 | 50 | 1010.5 |
| 20260501154513 | 13 | 44 | 17.7 | 38.6 | 0.00 | 0.13 | 0.00 | 50 | 1010.6 |
| 20260501154006 | 13 | 23 | 8.0 | 25.7 | 0.00 | 0.13 | 0.00 | 50 | 1010.7 |
| 20260501153508 | 13 | 40 | 9.7 | 25.7 | 0.00 | 0.13 | 0.00 | 47 | 1010.7 |
| 20260501153020 | 12 | 329 | 6.4 | 30.6 | 0.00 | 0.13 | 0.00 | 46 | 1010.7 |
| 20260501152507 | 12 | 315 | 14.5 | 30.6 | 0.00 | 0.13 | 0.00 | 48 | 1010.7 |
| 20260501152008 | 12 | 80 | 17.7 | 40.2 | 0.00 | 0.13 | 0.00 | 47 | 1010.7 |
| 20260501151521 | 12 | 30 | 9.7 | 40.2 | 0.00 | 0.13 | 0.00 | 49 | 1010.8 |
| 20260501151009 | 12 | 46 | 22.5 | 33.8 | 0.00 | 0.13 | 0.00 | 52 | 1010.7 |
| 20260501150512 | 12 | 70 | 4.8 | 32.2 | 0.00 | 0.13 | 0.00 | 56 | 1010.8 |
| 20260501150030 | 12 | 55 | 17.7 | 32.2 | 0.00 | 0.13 | 0.00 | 53 | 1010.8 |
| 20260501145509 | 12 | 51 | 19.3 | 30.6 | 0.00 | 0.13 | 0.00 | 55 | 1010.8 |